Location: Unspecified
(0.0000°N, 0.0000°E)
Time: 02:26:02
(UTC+01:00)

Amateur Radio Satellites - All Passes

Search period start: 19 January 2018 01:56
Search period end: 20 January 2018 01:56
Location: Unspecified, 0.0000°N, 0.0000°E

Satellite Date Start Highest point End Downlink Frequencies (MHz)
Time Altitude Azimuth
SPROUT 19 Jan 02:06:19 02:08:22 13° 258° (WSW) 02:10:25 437.525
UKube-1 19 Jan 02:06:49 02:09:21 15° 78° (ENE) 02:11:52 .
DX 1 19 Jan 02:11:39 02:15:38 36° 78° (ENE) 02:19:37 434.975-435.025
FALCONSAT 3 19 Jan 02:13:41 02:17:20 72° 322° (NW) 02:20:59 435.103
JUGNU 19 Jan 02:23:07 02:23:18 10° 177° (S) 02:23:29 437.505
SRMSAT 19 Jan 02:32:22 02:35:50 16° 193° (SSW) 02:39:18 437.500
Gurwin Techsat 1B 19 Jan 02:33:11 02:38:30 82° 282° (WNW) 02:43:49 435.225
BUGSAT 1 19 Jan 02:55:11 02:56:18 11° 282° (WNW) 02:57:25 437.445
Oscar 19 19 Jan 03:09:11 03:12:54 20° 283° (WNW) 03:16:39 437.125/150
MOZHAYETS 4 19 Jan 03:17:32 03:21:33 30° 78° (ENE) 03:25:35
AO-91 19 Jan 03:20:29 03:22:22 12° 280° (W) 03:24:17 145.960
UKube-1 19 Jan 03:41:49 03:45:06 21° 258° (WSW) 03:48:22 .
NO-84 19 Jan 03:43:01 03:45:51 25° 60° (ENE) 03:48:52 435.350 FM
AO-7 19 Jan 03:58:39 04:06:56 71° 106° (ESE) 04:15:12 .
ITUPSAT 1 19 Jan 03:59:29 04:04:08 54° 78° (ENE) 04:08:46 437.325
ITAMSAT 1 19 Jan 04:08:40 04:13:38 46° 103° (ESE) 04:18:38 435.822/435.867
JUGNU 19 Jan 04:09:50 04:13:21 16° 167° (SSE) 04:16:52 437.505
BEESAT 19 Jan 04:41:03 04:45:29 40° 257° (WSW) 04:49:55 436.000
CUBESAT XI-V 19 Jan 04:50:17 04:55:00 86° 260° (W) 04:59:42 437.345
SO-50 19 Jan 04:50:41 04:54:37 31° 112° (ESE) 04:58:32 436.795
MOZHAYETS 4 19 Jan 04:56:33 04:58:25 12° 258° (WSW) 05:00:18
KKS-1 19 Jan 05:06:46 05:08:23 12° 78° (ENE) 05:10:00 437.445
DOVE 4 19 Jan 05:12:08 05:16:40 53° 102° (ESE) 05:21:30 437.250
M-CUBED/EXP-1 PRIME 19 Jan 05:12:54 05:16:03 52° 106° (ESE) 05:19:18 437.505
NO-84 19 Jan 05:22:14 05:22:57 10° 235° (SW) 05:23:43 435.350 FM
ITAMSAT 1 19 Jan 05:52:04 05:52:48 10° 283° (WNW) 05:53:32 435.822/435.867
AO-7 19 Jan 05:55:31 05:59:14 14° 288° (WNW) 06:02:58 .
JUGNU 19 Jan 05:57:30 06:02:52 35° 161° (SSE) 06:08:11 437.505
LilacSat-2 19 Jan 06:11:53 06:15:07 28° 102° (ESE) 06:18:21 437.200
RS-15 19 Jan 06:12:08 06:18:15 15° 113° (ESE) 06:24:24 29.354- 29.394
SRMSAT 19 Jan 06:14:26 06:16:24 12° 172° (S) 06:18:22 437.500
XW-2C 19 Jan 06:17:09 06:20:26 30° 101° (ESE) 06:23:43 145.795 - 145.815
HO-68 19 Jan 06:31:30 06:36:23 20° 105° (ESE) 06:41:15 435.675
SO-50 19 Jan 06:33:29 06:34:48 11° 293° (WNW) 06:36:09 436.795
KKS-1 19 Jan 06:40:50 06:44:40 29° 258° (WSW) 06:48:29 437.445
nSIGHT-1 19 Jan 06:46:33 06:48:47 17° 54° (NE) 06:51:00 .
ISS 19 Jan 06:51:11 06:52:22 12° 54° (NE) 06:53:34 437.550
XW-2F 19 Jan 06:55:26 06:59:06 64° 281° (W) 07:02:47 145.980 - 146.000
KAITUO 1B 19 Jan 06:57:53 07:01:32 87° 282° (WNW) 07:05:12 145.475/437.950
STARS 19 Jan 07:03:10 07:07:22 46° 258° (WSW) 07:11:32 437.465
XW-2D 19 Jan 07:03:13 07:06:42 39° 281° (W) 07:10:13 145.860 - 145.880
CUTE-I 19 Jan 07:03:46 07:09:06 83° 283° (WNW) 07:14:28 437.470
NUDT-PHONESAT 19 Jan 07:13:22 07:16:53 49° 281° (WNW) 07:20:26 437.300
CUBEBUG 2 19 Jan 07:20:12 07:24:19 30° 101° (ESE) 07:28:21 437.445
XW-2B 19 Jan 07:21:17 07:24:12 22° 281° (W) 07:27:09 145.730 - 145.750
SEEDS 19 Jan 07:24:28 07:28:04 29° 102° (ESE) 07:31:42 437.485
UWE-3 19 Jan 07:31:16 07:34:33 20° 101° (E) 07:37:47 435.000/436.395/437.385
CUTE 1.7 + AOD 2 19 Jan 07:31:49 07:35:59 80° 103° (ESE) 07:40:11 437.475
JUGNU 19 Jan 07:46:03 07:51:58 86° 338° (NNW) 07:57:50 437.505
ZACube-1 19 Jan 08:00:08 08:03:25 20° 101° (E) 08:06:38 437.345
SRMSAT 19 Jan 08:01:50 08:06:22 22° 163° (SSE) 08:10:54 437.500
AO-73 19 Jan 08:08:13 08:11:38 22° 101° (ESE) 08:14:59 145.935
XW-2A 19 Jan 08:10:06 08:13:05 31° 101° (E) 08:16:04 145.665 - 145.685
FO-29 19 Jan 08:13:25 08:20:36 42° 78° (ENE) 08:27:11 435.910
HO-68 19 Jan 08:17:03 08:23:45 44° 284° (WNW) 08:30:30 435.675
RS-15 19 Jan 08:18:24 08:30:28 84° 290° (WNW) 08:42:50 29.354- 29.394
nSIGHT-1 19 Jan 08:23:12 08:24:44 13° 234° (SW) 08:26:17 .
ISS 19 Jan 08:26:07 08:28:39 21° 234° (SW) 08:31:12 437.550
STRAND 1 19 Jan 08:29:02 08:34:00 53° 258° (WSW) 08:38:55 437.568
Oscar 11 19 Jan 08:43:16 08:47:14 37° 102° (ESE) 08:51:13 .
AAUSAT CUBESAT 2 19 Jan 08:48:14 08:52:07 44° 281° (W) 08:56:04 437.432
CUBEBUG 2 19 Jan 08:58:25 09:00:35 13° 282° (WNW) 09:02:46 437.445
BEESAT 3 19 Jan 09:01:51 09:05:13 27° 112° (ESE) 09:08:37 437.485
UWE-3 19 Jan 09:07:29 09:10:43 19° 282° (WNW) 09:13:54 435.000/436.395/437.385
JUGNU 19 Jan 09:35:55 09:41:03 31° 341° (NNW) 09:46:11 437.505
ZACube-1 19 Jan 09:36:32 09:39:24 17° 282° (WNW) 09:42:14 437.345
PCSat 19 Jan 09:36:49 09:42:07 58° 109° (ESE) 09:47:23 145.827
BEESAT 2 19 Jan 09:44:54 09:47:41 19° 112° (ESE) 09:50:29 435.950
AO-73 19 Jan 09:44:59 09:47:34 15° 282° (WNW) 09:50:07 145.935
DELFI C3 19 Jan 09:46:14 09:49:46 32° 102° (ESE) 09:53:20 145.870
SRMSAT 19 Jan 09:49:58 09:55:46 56° 159° (SSE) 10:01:36 437.500
FO-29 19 Jan 09:59:17 10:05:08 24° 255° (WSW) 10:10:42 435.910
TIGRISAT 19 Jan 10:05:03 10:09:02 39° 78° (ENE) 10:13:04 435.000
UNISAT 6 19 Jan 10:19:27 10:23:43 75° 79° (E) 10:28:02 437.425
RS-15 19 Jan 10:39:32 10:43:01 11° 294° (WNW) 10:46:32 29.354- 29.394
Max Valier Satellite 19 Jan 10:52:53 10:56:10 31° 281° (W) 10:59:26 145.860
YUBILEINY 19 Jan 11:03:48 11:11:24 35° 87° (E) 11:19:00 435.215
LO-87 19 Jan 11:11:01 11:12:56 14° 101° (ESE) 11:14:52 145.935 - 145.965
PRISM 19 Jan 11:11:25 11:15:28 57° 78° (ENE) 11:19:28 437.425
AIST 2D 19 Jan 11:14:52 11:17:29 19° 79° (E) 11:20:05 435.315
EO-88 19 Jan 11:17:12 11:20:03 22° 281° (WNW) 11:22:57 145.990 - 145.960
BEESAT 2 19 Jan 11:22:53 11:25:08 15° 292° (WNW) 11:27:23 435.950
JUGNU 19 Jan 11:27:31 11:30:35 14° 348° (NNW) 11:33:39 437.505
AO-85 19 Jan 11:37:06 11:40:51 51° 112° (ESE) 11:44:34 145.980
SRMSAT 19 Jan 11:39:13 11:44:59 53° 339° (NNW) 11:50:48 437.500
QB50P2 19 Jan 11:39:52 11:41:25 12° 78° (ENE) 11:42:58 145.880/145.840
EO-79 19 Jan 12:09:27 12:13:05 29° 78° (ENE) 12:16:42 145.935-145.965
DUCHIFAT 1 19 Jan 12:11:24 12:14:33 21° 78° (ENE) 12:17:42 145.980
ESTCUBE 1 19 Jan 12:13:11 12:17:38 83° 280° (W) 12:22:07 437.505/2401.250
SPROUT 19 Jan 12:35:49 12:39:32 29° 102° (ESE) 12:43:16 437.525
POLYITAN 1 19 Jan 12:43:14 12:47:26 85° 257° (WSW) 12:51:39 437.675
O/OREOS (USA 219) 19 Jan 12:43:26 12:47:55 87° 78° (ENE) 12:52:27 437.305
LO-87 19 Jan 12:43:56 12:46:03 15° 281° (W) 12:48:09 145.935 - 145.965
YUBILEINY 19 Jan 13:00:37 13:07:47 30° 267° (W) 13:15:02 435.215
NANOSAT C BR1 19 Jan 13:01:00 13:05:04 53° 258° (WSW) 13:09:08 145.865
QB50P2 19 Jan 13:13:26 13:16:55 25° 258° (WSW) 13:20:24 145.880/145.840
BUGSAT 1 19 Jan 13:20:33 13:24:03 29° 78° (ENE) 13:27:33 437.445
SRMSAT 19 Jan 13:29:59 13:34:27 22° 344° (NNW) 13:38:55 437.500
Gurwin Techsat 1B 19 Jan 13:33:45 13:37:22 19° 77° (ENE) 13:40:57 435.225
DUCHIFAT 1 19 Jan 13:47:40 13:49:55 14° 258° (WSW) 13:52:11 145.980
EO-79 19 Jan 13:48:00 13:48:33 10° 258° (WSW) 13:49:06 145.935-145.965
AO-91 19 Jan 13:54:36 13:58:10 48° 79° (E) 14:01:30 145.960
FALCONSAT 3 19 Jan 13:56:30 14:00:08 78° 218° (SW) 14:03:48 435.103
VELOX 1 19 Jan 13:58:29 14:02:33 38° 282° (WNW) 14:06:39 145.980
Oscar 19 19 Jan 14:02:24 14:07:31 62° 78° (ENE) 14:12:38 437.125/150
SPROUT 19 Jan 14:14:06 14:15:08 11° 282° (WNW) 14:16:11 437.525
UKube-1 19 Jan 14:14:22 14:17:30 20° 103° (ESE) 14:20:39 .
DX 1 19 Jan 14:20:49 14:25:01 49° 103° (ESE) 14:29:14 434.975-435.025
AO-7 19 Jan 14:37:42 14:41:00 13° 72° (ENE) 14:44:18 .
50 SAT 19 Jan 15:00:22 15:03:05 28° 281° (WNW) 15:05:49 437.505
JUGNU 19 Jan 15:08:40 15:10:49 12° 9° (N) 15:12:57 437.505
Gurwin Techsat 1B 19 Jan 15:12:32 15:17:01 28° 257° (WSW) 15:21:29 435.225
SRMSAT 19 Jan 15:22:33 15:24:27 11° 353° (N) 15:26:23 437.500
NO-84 19 Jan 15:25:30 15:28:28 22° 124° (SE) 15:31:15 435.350 FM
BEESAT 19 Jan 15:26:16 15:29:43 20° 103° (ESE) 15:33:09 436.000
MOZHAYETS 4 19 Jan 15:33:41 15:38:08 51° 101° (ESE) 15:42:35
UKube-1 19 Jan 15:50:30 15:53:14 17° 282° (WNW) 15:55:58 .
ITUPSAT 1 19 Jan 16:21:29 16:26:16 76° 282° (WNW) 16:31:04 437.325
AO-7 19 Jan 16:25:00 16:33:17 75° 253° (WSW) 16:41:36 .
ITAMSAT 1 19 Jan 16:43:33 16:48:42 66° 257° (WSW) 16:53:48 435.822/435.867
JUGNU 19 Jan 16:55:52 17:00:33 24° 17° (NNE) 17:05:14 437.505
SO-50 19 Jan 17:02:22 17:07:05 62° 68° (ENE) 17:11:51 436.795
BEESAT 19 Jan 17:03:37 17:07:12 21° 283° (WNW) 17:10:47 436.000
NO-84 19 Jan 17:04:00 17:05:25 12° 300° (WNW) 17:06:48 435.350 FM
CUBESAT XI-V 19 Jan 17:08:42 17:13:05 47° 282° (WNW) 17:17:29 437.345
M-CUBED/EXP-1 PRIME 19 Jan 17:10:25 17:14:58 58° 75° (ENE) 17:19:24 437.505
SRMSAT 19 Jan 17:14:17 17:14:51 10° 4° (N) 17:15:24 437.500
KKS-1 19 Jan 17:17:36 17:20:37 18° 103° (ESE) 17:23:38 437.445
DOVE 4 19 Jan 17:33:16 17:38:02 78° 259° (W) 17:42:29 437.250
STARS 19 Jan 17:41:30 17:41:53 10° 103° (ESE) 17:42:16 437.465
CUTE-I 19 Jan 18:05:05 18:08:44 19° 77° (ENE) 18:12:21 437.470
LilacSat-2 19 Jan 18:06:12 18:09:20 23° 79° (E) 18:12:27 437.200
XW-2C 19 Jan 18:10:44 18:13:55 25° 79° (ENE) 18:17:04 145.795 - 145.815
nSIGHT-1 19 Jan 18:20:14 18:20:28 10° 126° (SE) 18:20:42 .
HO-68 19 Jan 18:23:57 18:28:03 16° 75° (ENE) 18:32:09 435.675
JUGNU 19 Jan 18:43:54 18:49:46 61° 21° (NNE) 18:55:40 437.505
XW-2F 19 Jan 18:48:12 18:52:02 86° 264° (W) 18:55:50 145.980 - 146.000
KAITUO 1B 19 Jan 18:49:41 18:53:27 68° 80° (E) 18:57:13 145.475/437.950
KKS-1 19 Jan 18:53:38 18:56:53 20° 282° (WNW) 19:00:10 437.445
XW-2D 19 Jan 18:56:23 19:00:08 52° 259° (WSW) 19:03:51 145.860 - 145.880
SRMSAT 19 Jan 19:01:22 19:05:02 17° 13° (NNE) 19:08:43 437.500
NUDT-PHONESAT 19 Jan 19:03:59 19:07:43 74° 258° (WSW) 19:11:27 437.300
STARS 19 Jan 19:13:56 19:17:55 33° 282° (WNW) 19:21:55 437.465
XW-2B 19 Jan 19:14:17 19:17:39 29° 259° (W) 19:20:59 145.730 - 145.750
STRAND 1 19 Jan 19:23:32 19:27:34 23° 103° (ESE) 19:31:35 437.568
SEEDS 19 Jan 19:29:16 19:33:10 35° 79° (ENE) 19:37:02 437.485
CUBEBUG 2 19 Jan 19:32:19 19:36:15 40° 78° (ENE) 19:40:15 437.445
CUTE 1.7 + AOD 2 19 Jan 19:37:55 19:42:13 83° 259° (W) 19:46:29 437.475
UWE-3 19 Jan 19:41:44 19:45:14 25° 78° (ENE) 19:48:48 435.000/436.395/437.385
LilacSat-2 19 Jan 19:42:37 19:43:19 10° 258° (WSW) 19:44:00 437.200
CUTE-I 19 Jan 19:43:59 19:48:29 28° 257° (WSW) 19:52:59 437.470
FO-29 19 Jan 19:48:32 19:51:39 15° 106° (ESE) 19:54:54 435.910
XW-2A 19 Jan 19:52:55 19:55:09 16° 79° (E) 19:57:22 145.665 - 145.685
nSIGHT-1 19 Jan 19:53:56 19:56:26 21° 306° (NW) 19:58:55 .
ISS 19 Jan 19:59:37 20:02:36 33° 306° (NW) 20:05:33 437.550
RS-15 19 Jan 20:01:56 20:13:04 84° 69° (ENE) 20:23:57 29.354- 29.394
HO-68 19 Jan 20:08:29 20:15:26 53° 255° (WSW) 20:22:21 435.675
ZACube-1 19 Jan 20:09:11 20:12:47 27° 78° (ENE) 20:16:26 437.345
AO-73 19 Jan 20:16:55 20:20:38 29° 78° (ENE) 20:24:24 145.935
JUGNU 19 Jan 20:33:05 20:38:50 49° 201° (SSW) 20:44:38 437.505
PCSat 19 Jan 20:33:15 20:35:03 12° 70° (ENE) 20:36:51 145.827
SRMSAT 19 Jan 20:49:13 20:54:42 37° 20° (NNE) 21:00:11 437.500
AAUSAT CUBESAT 2 19 Jan 20:51:32 20:55:27 40° 258° (WSW) 20:59:20 437.432
Oscar 11 19 Jan 20:51:39 20:55:53 51° 79° (ENE) 21:00:06 .
BEESAT 3 19 Jan 20:53:15 20:56:27 26° 68° (ENE) 20:59:38 437.485
STRAND 1 19 Jan 21:02:38 21:06:26 21° 283° (WNW) 21:10:18 437.568
UWE-3 19 Jan 21:19:44 21:21:26 12° 259° (W) 21:23:08 435.000/436.395/437.385
XW-2A 19 Jan 21:26:42 21:27:33 11° 259° (WSW) 21:28:23 145.665 - 145.685
FO-29 19 Jan 21:31:38 21:36:22 34° 281° (W) 21:41:31 435.910
BEESAT 2 19 Jan 21:37:35 21:40:21 19° 68° (ENE) 21:43:07 435.950
DELFI C3 19 Jan 21:44:11 21:47:40 30° 79° (E) 21:51:07 145.870
ZACube-1 19 Jan 21:47:11 21:48:48 12° 259° (WSW) 21:50:26 437.345
AO-73 19 Jan 21:55:27 21:56:36 11° 259° (WSW) 21:57:45 145.935
PCSat 19 Jan 22:13:04 22:18:11 44° 251° (WSW) 22:23:19 145.827
TIGRISAT 19 Jan 22:17:32 22:22:09 64° 102° (ESE) 22:26:42 435.000
RS-15 19 Jan 22:21:04 22:25:10 13° 246° (WSW) 22:29:15 29.354- 29.394
JUGNU 19 Jan 22:23:50 22:28:12 20° 195° (SSW) 22:32:34 437.505
UNISAT 6 19 Jan 22:32:20 22:36:58 70° 282° (WNW) 22:41:33 437.425
SRMSAT 19 Jan 22:37:58 22:43:58 82° 202° (SSW) 22:49:58 437.500
Max Valier Satellite 19 Jan 22:43:14 22:46:49 46° 259° (W) 22:50:23 145.860
AIST 2D 19 Jan 23:01:59 23:02:54 11° 101° (ESE) 23:03:49 435.315
EO-88 19 Jan 23:06:03 23:09:24 34° 259° (W) 23:12:44 145.990 - 145.960
PRISM 19 Jan 23:13:35 23:17:37 62° 102° (ESE) 23:21:42 437.425
BEESAT 2 19 Jan 23:15:46 23:17:47 14° 248° (WSW) 23:19:47 435.950
YUBILEINY 19 Jan 23:36:12 23:44:59 68° 93° (E) 23:53:43 435.215
QB50P2 19 Jan 23:45:04 23:47:29 15° 102° (ESE) 23:49:54 145.880/145.840
AO-85 19 Jan 23:47:52 23:53:13 79° 248° (WSW) 23:58:35 145.980
EO-79 20 Jan 00:15:02 00:18:56 35° 102° (ESE) 00:22:49 145.935-145.965
DUCHIFAT 1 20 Jan 00:16:11 00:19:40 25° 102° (ESE) 00:23:08 145.980
JUGNU 20 Jan 00:16:20 00:18:06 11° 187° (S) 00:19:52 437.505
ESTCUBE 1 20 Jan 00:27:13 00:31:39 52° 258° (WSW) 00:36:03 437.505/2401.250
SRMSAT 20 Jan 00:28:04 00:33:16 31° 199° (SSW) 00:38:29 437.500
LO-87 20 Jan 00:30:42 00:33:31 23° 259° (WSW) 00:36:21 145.935 - 145.965
AIST 2D 20 Jan 00:33:32 00:35:47 16° 281° (W) 00:38:02 435.315
VELOX 1 20 Jan 00:35:49 00:37:51 13° 78° (ENE) 00:39:51 145.980
SPROUT 20 Jan 00:42:32 00:46:25 36° 78° (ENE) 00:50:17 437.525
POLYITAN 1 20 Jan 00:49:14 00:53:29 69° 281° (W) 00:57:43 437.675
O/OREOS (USA 219) 20 Jan 00:54:37 00:59:04 53° 284° (WNW) 01:03:28 437.305
NANOSAT C BR1 20 Jan 01:06:29 01:10:31 44° 282° (WNW) 01:14:34 145.865
QB50P2 20 Jan 01:19:44 01:22:59 21° 282° (WNW) 01:26:15 145.880/145.840
BUGSAT 1 20 Jan 01:23:05 01:26:55 34° 102° (ESE) 01:30:44 437.445
YUBILEINY 20 Jan 01:37:32 01:41:22 13° 273° (W) 01:45:12 435.215
FALCONSAT 3 20 Jan 01:39:21 01:43:02 84° 325° (NW) 01:46:42 435.103
